Location: Unspecified
(0.0000°N, 0.0000°E)
Time: 16:14:06
(UTC+00:00)

CZ-3C DEB - Pass Details

Date: 08 March 2026
Orbit: 640 x 36740 km, 20.7° (Epoch: 1 May)

Event Time Altitude Azimuth Distance (km) Brightness Sun altitude
Rises 10:08:51 0° 294° (WNW) 9,460 ? 59.2°
Reaches altitude 10° 10:13:26 10° 297° (WNW) 9,751 ? 60.3°
Maximum altitude 12:26:54 67° 310° (NW) 29,183 ? 83.8°
Enters shadow 20:31:35 25° 149° (SSE) 3,621 ? -35.1°
